OMD6044 FXMM-FMCH

Flight info

Callsign OMD6044
Flight time 3h 31m
Altitude 37000
Route IXEKI UZ36 TEVAP UG467 VL UW19 VNP UT547 VNC UT548 SOLAL SOLAL1V
Aircraft MD88/M-SDFGIRWY/S

Departure

Time 2026-04-26 03:50
Airport Moshoeshoe I International Airport (FXMM)

Arrival

Time 2026-04-26 07:21
Airport Prince Said Ibrahim International Airport (FMCH)
Time Latitude Longitude Altitude Speed Heading
2026-04-26 02:59 -29.45923 27.55778 5386 ft 0 kts 342°
2026-04-26 03:39 -29.45918 27.55777 5385 ft 1 kts 342°
2026-04-26 03:39 -29.45897 27.55769 5385 ft 3 kts 340°
2026-04-26 03:40 -29.45879 27.55760 5385 ft 1 kts 326°
2026-04-26 03:40 -29.45872 27.55747 5385 ft 1 kts 286°
2026-04-26 03:40 -29.45869 27.55739 5385 ft 0 kts 299°
2026-04-26 03:40 -29.45865 27.55731 5384 ft 2 kts 300°
2026-04-26 03:41 -29.45849 27.55685 5383 ft 11 kts 282°
2026-04-26 03:41 -29.45819 27.55603 5380 ft 10 kts 322°
2026-04-26 03:41 -29.45757 27.55603 5379 ft 7 kts 13°
2026-04-26 03:41 -29.45716 27.55614 5379 ft 4 kts 13°
2026-04-26 03:42 -29.45701 27.55618 5379 ft 0 kts 15°
2026-04-26 03:42 -29.45700 27.55618 5379 ft 1 kts 15°
2026-04-26 03:42 -29.45669 27.55628 5380 ft 7 kts 15°
2026-04-26 03:43 -29.45602 27.55649 5382 ft 12 kts 15°
2026-04-26 03:43 -29.45519 27.55628 5382 ft 14 kts 283°
2026-04-26 03:43 -29.45513 27.55526 5377 ft 8 kts 295°
2026-04-26 03:43 -29.45461 27.55487 5376 ft 10 kts
2026-04-26 03:44 -29.45390 27.55506 5377 ft 9 kts 14°
2026-04-26 03:44 -29.45333 27.55524 5378 ft 7 kts 14°
2026-04-26 03:44 -29.45284 27.55539 5379 ft 7 kts 14°
2026-04-26 03:44 -29.45235 27.55553 5379 ft 7 kts 14°
2026-04-26 03:45 -29.45185 27.55569 5379 ft 7 kts 15°
2026-04-26 03:45 -29.45132 27.55585 5379 ft 8 kts 15°
2026-04-26 03:45 -29.45073 27.55603 5380 ft 9 kts 15°
2026-04-26 03:45 -29.45001 27.55626 5379 ft 12 kts 15°
2026-04-26 03:46 -29.44910 27.55654 5378 ft 15 kts 15°
2026-04-26 03:46 -29.44791 27.55691 5376 ft 20 kts 15°
2026-04-26 03:46 -29.44639 27.55738 5371 ft 24 kts 14°
2026-04-26 03:47 -29.44401 27.55810 5362 ft 19 kts 15°
2026-04-26 03:47 -29.44279 27.55850 5357 ft 16 kts 15°
2026-04-26 03:47 -29.44222 27.55865 5353 ft 10 kts 12°
2026-04-26 03:48 -29.44190 27.55868 5351 ft 0 kts 19°
2026-04-26 03:48 -29.44187 27.55874 5351 ft 1 kts 93°
2026-04-26 03:48 -29.44189 27.55878 5351 ft 0 kts 150°
2026-04-26 03:48 -29.44190 27.55878 5351 ft 0 kts 153°
2026-04-26 03:49 -29.44204 27.55878 5352 ft 5 kts 186°
2026-04-26 03:49 -29.44283 27.55857 5357 ft 21 kts 193°
2026-04-26 03:49 -29.44503 27.55792 5367 ft 54 kts 194°
2026-04-26 03:50 -29.45054 27.55623 5380 ft 108 kts 194°
2026-04-26 03:50 -29.45950 27.55338 5372 ft 155 kts 195°
2026-04-26 03:50 -29.47047 27.54960 5766 ft 162 kts 201°
2026-04-26 03:50 -29.47989 27.54313 6267 ft 164 kts 225°
2026-04-26 03:51 -29.48766 27.53382 6799 ft 163 kts 240°
2026-04-26 03:51 -29.49142 27.52184 7332 ft 159 kts 269°
2026-04-26 03:51 -29.48992 27.50991 7864 ft 153 kts 296°
2026-04-26 03:51 -29.48367 27.50036 8389 ft 149 kts 324°
2026-04-26 03:52 -29.47477 27.49504 8926 ft 146 kts 340°
2026-04-26 03:52 -29.46471 27.49341 9441 ft 146 kts 360°
2026-04-26 03:52 -29.45504 27.49577 9932 ft 142 kts 17°
2026-04-26 03:52 -29.44561 27.49957 10246 ft 146 kts 13°
2026-04-26 03:53 -29.43617 27.50311 10630 ft 145 kts 10°
2026-04-26 03:53 -29.42557 27.50669 10733 ft 168 kts 11°
2026-04-26 03:53 -29.41355 27.51052 10895 ft 188 kts 11°
2026-04-26 03:53 -29.40005 27.51449 11042 ft 212 kts
2026-04-26 03:54 -29.38479 27.51867 11118 ft 241 kts
2026-04-26 03:54 -29.36726 27.52311 11125 ft 277 kts
2026-04-26 03:54 -29.34697 27.52795 11202 ft 310 kts
2026-04-26 03:54 -29.32476 27.53288 11292 ft 338 kts
2026-04-26 03:55 -29.30130 27.53782 11927 ft 344 kts
2026-04-26 03:55 -29.27766 27.54259 12645 ft 349 kts
2026-04-26 03:55 -29.25351 27.54726 13309 ft 353 kts
2026-04-26 03:55 -29.22925 27.55184 13967 ft 357 kts
2026-04-26 03:56 -29.20424 27.55645 14629 ft 362 kts
2026-04-26 03:56 -29.17938 27.56093 15275 ft 365 kts
2026-04-26 03:56 -29.15392 27.56550 15920 ft 369 kts
2026-04-26 03:56 -29.12818 27.57006 16532 ft 372 kts
2026-04-26 03:57 -29.10234 27.57462 17108 ft 376 kts
2026-04-26 03:57 -29.07660 27.57912 17637 ft 381 kts
2026-04-26 03:57 -29.05015 27.58373 18214 ft 384 kts
2026-04-26 03:57 -29.02359 27.58834 18715 ft 389 kts
2026-04-26 03:58 -28.99646 27.59307 19240 ft 393 kts
2026-04-26 03:58 -28.96955 27.59774 19762 ft 396 kts
2026-04-26 03:58 -28.94187 27.60253 20247 ft 400 kts
2026-04-26 03:58 -28.91445 27.60727 20749 ft 403 kts
2026-04-26 03:59 -28.88654 27.61211 21214 ft 407 kts
2026-04-26 03:59 -28.85829 27.61701 21668 ft 411 kts
2026-04-26 03:59 -28.82947 27.62200 22134 ft 414 kts
2026-04-26 03:59 -28.80107 27.62693 22564 ft 418 kts
2026-04-26 04:00 -28.77202 27.63197 22993 ft 422 kts
2026-04-26 04:00 -28.74270 27.63705 23340 ft 426 kts
2026-04-26 04:00 -28.71334 27.64212 23676 ft 431 kts
2026-04-26 04:00 -28.68338 27.64732 24032 ft 435 kts
2026-04-26 04:01 -28.65330 27.65253 24369 ft 440 kts
2026-04-26 04:01 -28.63295 27.65607 24579 ft 443 kts
2026-04-26 04:01 -28.59243 27.66305 25051 ft 447 kts
2026-04-26 04:01 -28.56153 27.66834 25406 ft 450 kts
2026-04-26 04:02 -28.54095 27.67302 25599 ft 458 kts 12°
2026-04-26 04:02 -28.50262 27.69591 25960 ft 474 kts 36°
2026-04-26 04:02 -28.47983 27.72310 26207 ft 482 kts 54°
2026-04-26 04:02 -28.46424 27.75679 26479 ft 485 kts 72°
2026-04-26 04:03 -28.45289 27.79298 26777 ft 489 kts 70°
2026-04-26 04:03 -28.44004 27.82912 27009 ft 494 kts 68°
2026-04-26 04:03 -28.42644 27.86443 27329 ft 496 kts 67°
2026-04-26 04:03 -28.41198 27.90031 27564 ft 502 kts 66°
2026-04-26 04:04 -28.39697 27.93649 27856 ft 505 kts 65°
2026-04-26 04:04 -28.38184 27.97215 28100 ft 508 kts 65°
2026-04-26 04:04 -28.36630 28.00833 28386 ft 511 kts 65°
2026-04-26 04:04 -28.35060 28.04467 28585 ft 516 kts 65°
2026-04-26 04:05 -28.33470 28.08127 28876 ft 518 kts 65°
2026-04-26 04:05 -28.31870 28.11797 29039 ft 523 kts 65°
2026-04-26 04:05 -28.30249 28.15514 29402 ft 524 kts 65°
2026-04-26 04:05 -28.28639 28.19213 29556 ft 529 kts 65°
2026-04-26 04:06 -28.26994 28.22919 29954 ft 527 kts 65°
2026-04-26 04:06 -28.25350 28.26629 30227 ft 528 kts 65°
2026-04-26 04:06 -28.23706 28.30339 30586 ft 527 kts 65°
2026-04-26 04:06 -28.22071 28.34033 30899 ft 528 kts 65°
2026-04-26 04:07 -28.20424 28.37750 31197 ft 527 kts 65°
2026-04-26 04:07 -28.18788 28.41452 31543 ft 526 kts 65°
2026-04-26 04:07 -28.17140 28.45186 31750 ft 529 kts 65°
2026-04-26 04:07 -28.15506 28.48884 32092 ft 527 kts 65°
2026-04-26 04:08 -28.13863 28.52580 32348 ft 528 kts 65°
2026-04-26 04:08 -28.12208 28.56284 32669 ft 527 kts 65°
2026-04-26 04:08 -28.10555 28.59984 33047 ft 526 kts 65°
2026-04-26 04:08 -28.08903 28.63679 33451 ft 524 kts 65°
2026-04-26 04:09 -28.07291 28.67297 33933 ft 520 kts 64°
2026-04-26 04:09 -28.05652 28.70970 34248 ft 519 kts 64°
2026-04-26 04:09 -28.04034 28.74592 34638 ft 516 kts 64°
2026-04-26 04:09 -28.02408 28.78233 34958 ft 515 kts 64°
2026-04-26 04:10 -28.00811 28.81820 35309 ft 513 kts 64°
2026-04-26 04:10 -27.99189 28.85459 35541 ft 514 kts 64°
2026-04-26 04:10 -27.97365 28.88905 35842 ft 513 kts 52°
2026-04-26 04:10 -27.94984 28.91901 36094 ft 509 kts 40°
2026-04-26 04:11 -27.92195 28.94355 36416 ft 504 kts 33°
2026-04-26 04:11 -27.89353 28.96726 36714 ft 504 kts 33°
2026-04-26 04:11 -27.86651 28.99021 36949 ft 504 kts 34°
2026-04-26 04:11 -27.83924 29.01362 37182 ft 503 kts 34°
2026-04-26 04:12 -27.81230 29.03696 37353 ft 496 kts 34°
2026-04-26 04:12 -27.75788 29.08428 37346 ft 492 kts 35°
2026-04-26 04:13 -27.70263 29.13232 37346 ft 502 kts 34°
2026-04-26 04:13 -27.64733 29.18038 37350 ft 502 kts 35°
2026-04-26 04:14 -27.59207 29.22839 37357 ft 499 kts 36°
2026-04-26 04:14 -27.53724 29.27606 37353 ft 500 kts 35°
2026-04-26 04:15 -27.48203 29.32405 37348 ft 499 kts 35°
2026-04-26 04:15 -27.42695 29.37193 37346 ft 498 kts 35°
2026-04-26 04:16 -27.37192 29.41977 37346 ft 498 kts 35°
2026-04-26 04:16 -27.31676 29.46777 37342 ft 499 kts 35°
2026-04-26 04:17 -27.26160 29.51578 37343 ft 499 kts 35°
2026-04-26 04:17 -27.20674 29.56351 37345 ft 498 kts 36°
2026-04-26 04:18 -27.15182 29.61134 37349 ft 497 kts 36°
2026-04-26 04:18 -27.09707 29.65888 37349 ft 498 kts 35°
2026-04-26 04:19 -27.04179 29.70642 37344 ft 497 kts 34°
2026-04-26 04:19 -26.98647 29.75382 37344 ft 497 kts 34°
2026-04-26 04:20 -26.94076 29.79300 37349 ft 497 kts 35°
2026-04-26 04:20 -26.87683 29.84779 37340 ft 496 kts 35°
2026-04-26 04:21 -26.82154 29.89515 37342 ft 496 kts 35°
2026-04-26 04:21 -26.76682 29.94205 37341 ft 497 kts 35°
2026-04-26 04:22 -26.71182 29.98921 37343 ft 497 kts 35°
2026-04-26 04:22 -26.65680 30.03638 37348 ft 495 kts 36°
2026-04-26 04:23 -26.60231 30.08313 37349 ft 495 kts 36°
2026-04-26 04:23 -26.54753 30.13019 37351 ft 496 kts 36°
2026-04-26 04:24 -26.49263 30.17688 37349 ft 497 kts 36°
2026-04-26 04:24 -26.43782 30.22327 37346 ft 496 kts 36°
2026-04-26 04:25 -26.38291 30.26971 37348 ft 495 kts 36°
2026-04-26 04:25 -26.32796 30.31620 37351 ft 497 kts 36°
2026-04-26 04:26 -26.27272 30.36301 37347 ft 497 kts 36°
2026-04-26 04:26 -26.21777 30.40951 37351 ft 497 kts 36°
2026-04-26 04:27 -26.16256 30.45629 37337 ft 495 kts 36°
2026-04-26 04:27 -26.10774 30.50272 37321 ft 497 kts 36°
2026-04-26 04:28 -26.05249 30.54955 37294 ft 496 kts 36°
2026-04-26 04:28 -25.99746 30.59619 37275 ft 495 kts 36°
2026-04-26 04:29 -25.94276 30.64221 37277 ft 495 kts 36°
2026-04-26 04:29 -25.88771 30.68846 37257 ft 494 kts 36°
2026-04-26 04:30 -25.83257 30.73464 37273 ft 493 kts 36°
2026-04-26 04:30 -25.77733 30.78094 37274 ft 494 kts 35°
2026-04-26 04:31 -25.72195 30.82698 37261 ft 495 kts 36°
2026-04-26 04:31 -25.66684 30.87286 37225 ft 493 kts 36°
2026-04-26 04:32 -25.62111 30.91092 37230 ft 494 kts 36°
2026-04-26 04:32 -25.56603 30.95679 37212 ft 495 kts 36°
2026-04-26 04:33 -25.50150 31.01055 37199 ft 496 kts 36°
2026-04-26 04:33 -25.44650 31.05638 37188 ft 495 kts 36°
2026-04-26 04:34 -25.39173 31.10252 37179 ft 494 kts 39°
2026-04-26 04:34 -25.34428 31.15711 37176 ft 495 kts 55°
2026-04-26 04:35 -25.30296 31.21828 37167 ft 495 kts 53°
2026-04-26 04:35 -25.26105 31.27825 37158 ft 495 kts 53°
2026-04-26 04:36 -25.21855 31.33828 37143 ft 495 kts 53°
2026-04-26 04:36 -25.17612 31.39800 37123 ft 496 kts 53°
2026-04-26 04:37 -25.13329 31.45756 37116 ft 495 kts 53°
2026-04-26 04:37 -25.09044 31.51703 37112 ft 496 kts 53°
2026-04-26 04:38 -25.04750 31.57654 37105 ft 494 kts 53°
2026-04-26 04:38 -25.00475 31.63587 37101 ft 494 kts 53°
2026-04-26 04:39 -24.96188 31.69535 37088 ft 494 kts 53°
2026-04-26 04:39 -24.91944 31.75427 37086 ft 494 kts 52°
2026-04-26 04:40 -24.87668 31.81363 37069 ft 494 kts 53°
2026-04-26 04:40 -24.83362 31.87351 37078 ft 494 kts 53°
2026-04-26 04:41 -24.79113 31.93257 37075 ft 494 kts 53°
2026-04-26 04:41 -24.74855 31.99185 37072 ft 495 kts 52°
2026-04-26 04:42 -24.70634 32.05151 37083 ft 495 kts 53°
2026-04-26 04:42 -24.66400 32.11160 37062 ft 495 kts 53°
2026-04-26 04:43 -24.62199 32.17123 37068 ft 495 kts 53°
2026-04-26 04:43 -24.57968 32.23128 37074 ft 496 kts 54°
2026-04-26 04:44 -24.53773 32.29089 37072 ft 494 kts 54°
2026-04-26 04:44 -24.49327 32.34828 37068 ft 495 kts 48°
2026-04-26 04:45 -24.44627 32.40387 37067 ft 496 kts 48°
2026-04-26 04:45 -24.39962 32.45923 37073 ft 494 kts 49°
2026-04-26 04:46 -24.35310 32.51457 37074 ft 494 kts 49°
2026-04-26 04:46 -24.30634 32.57024 37077 ft 493 kts 49°
2026-04-26 04:47 -24.25992 32.62554 37075 ft 494 kts 49°
2026-04-26 04:47 -24.21330 32.68114 37063 ft 494 kts 48°
2026-04-26 04:48 -24.14337 32.76453 37075 ft 495 kts 48°
2026-04-26 04:48 -24.09687 32.81990 37071 ft 495 kts 48°
2026-04-26 04:49 -24.04990 32.87516 37075 ft 495 kts 48°
2026-04-26 04:49 -24.00313 32.93018 37076 ft 496 kts 48°
2026-04-26 04:50 -23.95612 32.98551 37076 ft 496 kts 48°
2026-04-26 04:50 -23.90937 33.04050 37080 ft 495 kts 48°
2026-04-26 04:51 -23.86250 33.09568 37072 ft 494 kts 48°
2026-04-26 04:51 -23.81584 33.15062 37070 ft 494 kts 49°
2026-04-26 04:52 -23.76886 33.20594 37068 ft 494 kts 49°
2026-04-26 04:52 -23.72218 33.26099 37075 ft 494 kts 49°
2026-04-26 04:53 -23.67562 33.31588 37073 ft 494 kts 49°
2026-04-26 04:53 -23.62899 33.37086 37076 ft 493 kts 49°
2026-04-26 04:54 -23.58235 33.42592 37077 ft 494 kts 49°
2026-04-26 04:54 -23.53593 33.48062 37077 ft 493 kts 48°
2026-04-26 04:55 -23.48907 33.53524 37078 ft 493 kts 49°
2026-04-26 04:55 -23.44208 33.58977 37075 ft 493 kts 49°
2026-04-26 04:56 -23.40311 33.63497 37083 ft 494 kts 49°
2026-04-26 04:56 -23.34810 33.69877 37072 ft 494 kts 48°
2026-04-26 04:57 -23.30109 33.75332 37071 ft 493 kts 48°
2026-04-26 04:57 -23.25429 33.80759 37071 ft 493 kts 49°
2026-04-26 04:58 -23.20724 33.86223 37075 ft 494 kts 48°
2026-04-26 04:58 -23.16052 33.91647 37079 ft 493 kts 48°
2026-04-26 04:59 -23.11360 33.97098 37080 ft 494 kts 49°
2026-04-26 04:59 -23.06664 34.02555 37084 ft 493 kts 49°
2026-04-26 05:00 -23.01992 34.07988 37083 ft 492 kts 49°
2026-04-26 05:00 -22.97327 34.13414 37086 ft 493 kts 49°
2026-04-26 05:01 -22.92655 34.18825 37092 ft 493 kts 49°
2026-04-26 05:01 -22.87929 34.24270 37076 ft 494 kts 49°
2026-04-26 05:02 -22.83242 34.29657 37079 ft 493 kts 49°
2026-04-26 05:02 -22.78501 34.35086 37078 ft 492 kts 49°
2026-04-26 05:03 -22.73818 34.40446 37084 ft 492 kts 48°
2026-04-26 05:03 -22.69106 34.45842 37085 ft 493 kts 49°
2026-04-26 05:04 -22.64419 34.51207 37084 ft 493 kts 48°
2026-04-26 05:04 -22.59683 34.56633 37085 ft 493 kts 49°
2026-04-26 05:05 -22.54986 34.62015 37085 ft 492 kts 49°
2026-04-26 05:05 -22.50275 34.67415 37079 ft 492 kts 48°
2026-04-26 05:06 -22.45597 34.72781 37077 ft 490 kts 48°
2026-04-26 05:06 -22.40958 34.78162 37082 ft 491 kts 49°
2026-04-26 05:07 -22.36351 34.83634 37077 ft 491 kts 50°
2026-04-26 05:07 -22.31778 34.89059 37079 ft 491 kts 49°
2026-04-26 05:08 -22.27192 34.94500 37078 ft 490 kts 50°
2026-04-26 05:08 -22.22611 34.99934 37078 ft 491 kts 49°
2026-04-26 05:09 -22.17999 35.05405 37079 ft 490 kts 50°
2026-04-26 05:09 -22.13420 35.10843 37074 ft 490 kts 50°
2026-04-26 05:10 -22.08873 35.16238 37075 ft 489 kts 50°
2026-04-26 05:10 -22.04284 35.21692 37075 ft 489 kts 50°
2026-04-26 05:11 -21.99710 35.27086 37068 ft 489 kts 46°
2026-04-26 05:11 -21.94361 35.31589 37069 ft 490 kts 31°
2026-04-26 05:12 -21.88307 35.35049 37062 ft 491 kts 27°
2026-04-26 05:12 -21.82300 35.38477 37064 ft 490 kts 28°
2026-04-26 05:13 -21.76375 35.41901 37065 ft 489 kts 28°
2026-04-26 05:13 -21.70373 35.45380 37063 ft 488 kts 28°
2026-04-26 05:14 -21.64422 35.48835 37064 ft 488 kts 28°
2026-04-26 05:14 -21.58453 35.52305 37065 ft 488 kts 28°
2026-04-26 05:15 -21.52457 35.55792 37064 ft 488 kts 28°
2026-04-26 05:15 -21.46517 35.59248 37066 ft 487 kts 28°
2026-04-26 05:16 -21.40542 35.62725 37063 ft 488 kts 28°
2026-04-26 05:16 -21.34624 35.66251 37057 ft 487 kts 29°
2026-04-26 05:17 -21.28721 35.69815 37059 ft 486 kts 29°
2026-04-26 05:17 -21.22850 35.73358 37055 ft 486 kts 29°
2026-04-26 05:18 -21.16933 35.76928 37058 ft 486 kts 29°
2026-04-26 05:18 -21.11029 35.80486 37056 ft 486 kts 30°
2026-04-26 05:19 -21.05180 35.84013 37055 ft 484 kts 29°
2026-04-26 05:19 -20.99301 35.87561 37058 ft 483 kts 29°
2026-04-26 05:20 -20.93464 35.91081 37056 ft 483 kts 29°
2026-04-26 05:20 -20.87601 35.94618 37045 ft 485 kts 30°
2026-04-26 05:21 -20.81737 35.98154 37045 ft 484 kts 30°
2026-04-26 05:21 -20.75849 36.01706 37048 ft 484 kts 30°
2026-04-26 05:22 -20.70021 36.05222 37051 ft 483 kts 30°
2026-04-26 05:22 -20.64159 36.08754 37046 ft 482 kts 29°
2026-04-26 05:23 -20.58319 36.12251 37047 ft 482 kts 29°
2026-04-26 05:23 -20.52483 36.15744 37048 ft 481 kts 30°
2026-04-26 05:24 -20.46626 36.19250 37051 ft 480 kts 29°
2026-04-26 05:24 -20.40825 36.22725 37048 ft 479 kts 29°
2026-04-26 05:25 -20.35019 36.26162 37051 ft 478 kts 29°
2026-04-26 05:25 -20.29178 36.29590 37047 ft 477 kts 29°
2026-04-26 05:26 -20.23371 36.32995 37047 ft 478 kts 29°
2026-04-26 05:26 -20.17545 36.36411 37048 ft 476 kts 29°
2026-04-26 05:27 -20.11764 36.39802 37044 ft 475 kts 29°
2026-04-26 05:27 -20.05945 36.43217 37042 ft 476 kts 29°
2026-04-26 05:28 -20.00147 36.46617 37043 ft 477 kts 29°
2026-04-26 05:28 -19.94356 36.50015 37046 ft 476 kts 29°
2026-04-26 05:29 -19.88568 36.53412 37038 ft 474 kts 29°
2026-04-26 05:29 -19.82770 36.56815 37036 ft 473 kts 29°
2026-04-26 05:30 -19.77012 36.60194 37038 ft 474 kts 29°
2026-04-26 05:30 -19.71231 36.63589 37037 ft 471 kts 29°
2026-04-26 05:31 -19.65458 36.66978 37032 ft 472 kts 28°
2026-04-26 05:31 -19.59707 36.70334 37036 ft 472 kts 28°
2026-04-26 05:32 -19.53962 36.73685 37034 ft 470 kts 28°
2026-04-26 05:32 -19.48233 36.77056 37033 ft 470 kts 28°
2026-04-26 05:33 -19.42537 36.80407 37034 ft 471 kts 28°
2026-04-26 05:33 -19.36814 36.83774 37033 ft 469 kts 28°
2026-04-26 05:34 -19.31085 36.87145 37034 ft 469 kts 28°
2026-04-26 05:34 -19.25366 36.90511 37034 ft 470 kts 28°
2026-04-26 05:35 -19.19657 36.93856 37034 ft 469 kts 28°
2026-04-26 05:35 -19.13930 36.97213 37034 ft 469 kts 28°
2026-04-26 05:36 -19.08244 37.00547 37032 ft 467 kts 28°
2026-04-26 05:36 -19.02517 37.03821 37033 ft 467 kts 28°
2026-04-26 05:37 -18.96816 37.07103 37032 ft 467 kts 28°
2026-04-26 05:37 -18.91132 37.10415 37030 ft 466 kts 28°
2026-04-26 05:38 -18.85453 37.13726 37030 ft 466 kts 28°
2026-04-26 05:38 -18.79763 37.17041 37034 ft 465 kts 28°
2026-04-26 05:39 -18.74099 37.20340 37034 ft 465 kts 28°
2026-04-26 05:39 -18.68439 37.23637 37032 ft 463 kts 28°
2026-04-26 05:40 -18.62804 37.26922 37038 ft 463 kts 28°
2026-04-26 05:40 -18.57158 37.30211 37038 ft 463 kts 28°
2026-04-26 05:41 -18.51551 37.33490 37037 ft 461 kts 28°
2026-04-26 05:41 -18.45958 37.36794 37043 ft 461 kts 28°
2026-04-26 05:42 -18.40360 37.40097 37036 ft 460 kts 28°
2026-04-26 05:42 -18.34775 37.43391 37043 ft 459 kts 28°
2026-04-26 05:43 -18.29187 37.46690 37038 ft 459 kts 28°
2026-04-26 05:43 -18.23618 37.49975 37036 ft 459 kts 28°
2026-04-26 05:44 -18.18037 37.53267 37044 ft 460 kts 28°
2026-04-26 05:44 -18.12470 37.56554 37040 ft 457 kts 28°
2026-04-26 05:45 -18.06942 37.59816 37042 ft 456 kts 27°
2026-04-26 05:45 -18.01402 37.63086 37046 ft 455 kts 27°
2026-04-26 05:46 -17.95902 37.66333 37040 ft 455 kts 27°
2026-04-26 05:46 -17.90361 37.69603 37035 ft 454 kts 27°
2026-04-26 05:47 -17.84867 37.72821 37037 ft 453 kts 26°
2026-04-26 05:47 -17.79301 37.75975 37039 ft 452 kts 26°
2026-04-26 05:48 -17.73775 37.79112 37033 ft 451 kts 26°
2026-04-26 05:48 -17.68258 37.82244 37039 ft 450 kts 26°
2026-04-26 05:49 -17.59947 37.86963 37041 ft 450 kts 26°
2026-04-26 05:50 -17.54455 37.90082 37040 ft 449 kts 26°
2026-04-26 05:50 -17.48983 37.93189 37044 ft 447 kts 26°
2026-04-26 05:51 -17.43478 37.96317 37044 ft 447 kts 26°
2026-04-26 05:51 -17.38018 37.99419 37043 ft 447 kts 26°
2026-04-26 05:52 -17.32552 38.02525 37045 ft 446 kts 26°
2026-04-26 05:52 -17.27097 38.05626 37043 ft 444 kts 26°
2026-04-26 05:53 -17.21650 38.08721 37044 ft 444 kts 26°
2026-04-26 05:53 -17.16221 38.11807 37045 ft 444 kts 26°
2026-04-26 05:54 -17.10767 38.14898 37051 ft 444 kts 25°
2026-04-26 05:54 -17.05310 38.17977 37060 ft 444 kts 25°
2026-04-26 05:55 -16.99855 38.21051 37063 ft 443 kts 25°
2026-04-26 05:55 -16.94427 38.24110 37058 ft 441 kts 25°
2026-04-26 05:56 -16.89007 38.27163 37069 ft 440 kts 25°
2026-04-26 05:56 -16.83629 38.30190 37072 ft 441 kts 25°
2026-04-26 05:57 -16.78191 38.33254 37073 ft 442 kts 25°
2026-04-26 05:57 -16.72792 38.36295 37077 ft 442 kts 25°
2026-04-26 05:58 -16.67370 38.39350 37079 ft 441 kts 25°
2026-04-26 05:58 -16.61973 38.42391 37080 ft 440 kts 25°
2026-04-26 05:59 -16.56577 38.45432 37079 ft 440 kts 25°
2026-04-26 05:59 -16.51180 38.48472 37077 ft 440 kts 25°
2026-04-26 06:00 -16.45774 38.51542 37081 ft 440 kts 26°
2026-04-26 06:00 -16.40420 38.54633 37080 ft 440 kts 26°
2026-04-26 06:01 -16.35049 38.57736 37085 ft 438 kts 26°
2026-04-26 06:01 -16.29754 38.60796 37092 ft 438 kts 26°
2026-04-26 06:02 -16.24411 38.63885 37090 ft 437 kts 26°
2026-04-26 06:02 -16.19079 38.66969 37087 ft 438 kts 25°
2026-04-26 06:03 -16.13755 38.70049 37089 ft 439 kts 25°
2026-04-26 06:03 -16.08408 38.73141 37087 ft 439 kts 25°
2026-04-26 06:04 -16.03048 38.76241 37091 ft 439 kts 25°
2026-04-26 06:04 -15.97706 38.79331 37090 ft 438 kts 25°
2026-04-26 06:05 -15.92405 38.82399 37090 ft 438 kts 25°
2026-04-26 06:05 -15.87051 38.85496 37097 ft 438 kts 26°
2026-04-26 06:06 -15.81701 38.88592 37098 ft 438 kts 26°
2026-04-26 06:06 -15.76363 38.91682 37096 ft 438 kts 26°
2026-04-26 06:07 -15.71051 38.94744 37096 ft 437 kts 25°
2026-04-26 06:07 -15.65692 38.97811 37087 ft 436 kts 25°
2026-04-26 06:08 -15.60321 39.00838 37090 ft 435 kts 25°
2026-04-26 06:08 -15.54978 39.03857 37090 ft 435 kts 25°
2026-04-26 06:09 -15.49668 39.06860 37089 ft 435 kts 25°
2026-04-26 06:09 -15.44310 39.09889 37095 ft 436 kts 25°
2026-04-26 06:10 -15.38962 39.12916 37090 ft 436 kts 25°
2026-04-26 06:10 -15.33576 39.15963 37092 ft 436 kts 25°
2026-04-26 06:11 -15.28225 39.18992 37095 ft 436 kts 26°
2026-04-26 06:11 -15.22907 39.22002 37097 ft 435 kts 25°
2026-04-26 06:12 -15.17592 39.25011 37097 ft 434 kts 26°
2026-04-26 06:12 -15.12272 39.28022 37097 ft 436 kts 26°
2026-04-26 06:12 -15.09793 39.29844 37117 ft 441 kts 39°
2026-04-26 06:13 -15.07751 39.32225 37114 ft 448 kts 53°
2026-04-26 06:13 -15.06232 39.35102 37122 ft 453 kts 65°
2026-04-26 06:13 -15.05035 39.38083 37099 ft 454 kts 64°
2026-04-26 06:14 -15.02502 39.44093 37093 ft 452 kts 63°
2026-04-26 06:14 -14.99933 39.50008 37096 ft 452 kts 63°
2026-04-26 06:15 -14.97329 39.55926 37092 ft 452 kts 63°
2026-04-26 06:15 -14.94737 39.61788 37090 ft 450 kts 63°
2026-04-26 06:16 -14.92122 39.67694 37083 ft 449 kts 62°
2026-04-26 06:16 -14.89515 39.73575 37086 ft 450 kts 62°
2026-04-26 06:17 -14.86902 39.79469 37088 ft 451 kts 62°
2026-04-26 06:17 -14.84287 39.85374 37082 ft 451 kts 63°
2026-04-26 06:18 -14.81687 39.91243 37078 ft 449 kts 62°
2026-04-26 06:18 -14.79099 39.97092 37075 ft 450 kts 62°
2026-04-26 06:19 -14.76490 40.02987 37070 ft 449 kts 63°
2026-04-26 06:19 -14.73896 40.08852 37076 ft 449 kts 62°
2026-04-26 06:20 -14.71300 40.14717 37077 ft 448 kts 63°
2026-04-26 06:20 -14.68720 40.20554 37074 ft 448 kts 63°
2026-04-26 06:21 -14.66134 40.26411 37070 ft 448 kts 63°
2026-04-26 06:21 -14.63571 40.32218 37065 ft 448 kts 63°
2026-04-26 06:22 -14.60972 40.38108 37056 ft 449 kts 63°
2026-04-26 06:22 -14.58405 40.43933 37055 ft 448 kts 63°
2026-04-26 06:23 -14.55834 40.49768 37047 ft 448 kts 63°
2026-04-26 06:23 -14.53258 40.55618 37045 ft 448 kts 63°
2026-04-26 06:24 -14.50701 40.61430 37038 ft 447 kts 63°
2026-04-26 06:24 -14.48118 40.67289 37025 ft 446 kts 60°
2026-04-26 06:24 -14.46455 40.69939 37030 ft 439 kts 47°
2026-04-26 06:25 -14.44295 40.72104 37024 ft 435 kts 34°
2026-04-26 06:25 -14.41691 40.73749 37028 ft 431 kts 22°
2026-04-26 06:25 -14.38888 40.74862 37038 ft 430 kts 18°
2026-04-26 06:26 -14.33326 40.77074 37015 ft 429 kts 19°
2026-04-26 06:26 -14.27770 40.79360 37013 ft 428 kts 19°
2026-04-26 06:27 -14.22213 40.81683 37009 ft 429 kts 20°
2026-04-26 06:27 -14.16691 40.84010 37001 ft 429 kts 20°
2026-04-26 06:28 -14.11145 40.86355 36995 ft 429 kts 20°
2026-04-26 06:28 -14.05639 40.88688 36994 ft 429 kts 20°
2026-04-26 06:29 -14.00121 40.91027 36991 ft 429 kts 20°
2026-04-26 06:29 -13.94591 40.93372 36987 ft 429 kts 20°
2026-04-26 06:30 -13.89072 40.95712 36992 ft 429 kts 20°
2026-04-26 06:30 -13.83608 40.98025 36989 ft 429 kts 20°
2026-04-26 06:31 -13.78055 41.00368 36990 ft 429 kts 20°
2026-04-26 06:31 -13.72552 41.02690 36989 ft 429 kts 20°
2026-04-26 06:32 -13.67008 41.05031 36990 ft 429 kts 20°
2026-04-26 06:32 -13.61472 41.07368 36989 ft 429 kts 20°
2026-04-26 06:33 -13.55937 41.09705 36989 ft 429 kts 20°
2026-04-26 06:33 -13.50428 41.12031 36994 ft 429 kts 20°
2026-04-26 06:34 -13.44914 41.14360 36996 ft 429 kts 20°
2026-04-26 06:34 -13.39358 41.16706 36995 ft 429 kts 20°
2026-04-26 06:35 -13.33835 41.19039 36994 ft 428 kts 20°
2026-04-26 06:35 -13.28342 41.21359 36992 ft 429 kts 20°
2026-04-26 06:36 -13.22788 41.23704 36990 ft 429 kts 20°
2026-04-26 06:36 -13.17249 41.26045 36990 ft 429 kts 20°
2026-04-26 06:37 -13.11716 41.28381 36988 ft 429 kts 21°
2026-04-26 06:37 -13.06211 41.30705 36989 ft 429 kts 21°
2026-04-26 06:38 -13.00674 41.33031 36986 ft 429 kts 20°
2026-04-26 06:38 -12.95147 41.35352 36985 ft 429 kts 21°
2026-04-26 06:39 -12.89610 41.37675 36986 ft 429 kts 20°
2026-04-26 06:39 -12.84082 41.39994 36991 ft 429 kts 21°
2026-04-26 06:40 -12.78554 41.42312 36989 ft 429 kts 21°
2026-04-26 06:40 -12.73026 41.44632 36991 ft 429 kts 20°
2026-04-26 06:41 -12.67483 41.46956 36990 ft 429 kts 20°
2026-04-26 06:41 -12.61936 41.49283 36989 ft 429 kts 20°
2026-04-26 06:42 -12.56433 41.51591 36989 ft 428 kts 20°
2026-04-26 06:42 -12.50886 41.53918 36991 ft 428 kts 21°
2026-04-26 06:43 -12.45366 41.56235 36989 ft 428 kts 21°
2026-04-26 06:43 -12.39893 41.58531 36990 ft 428 kts 21°
2026-04-26 06:44 -12.34330 41.60864 36989 ft 429 kts 21°
2026-04-26 06:44 -12.28799 41.63182 36989 ft 429 kts 21°
2026-04-26 06:45 -12.23265 41.65494 36987 ft 428 kts 20°
2026-04-26 06:45 -12.17768 41.67791 36987 ft 427 kts 20°
2026-04-26 06:46 -12.12239 41.70099 36983 ft 427 kts 20°
2026-04-26 06:46 -12.06724 41.72400 36984 ft 427 kts 20°
2026-04-26 06:47 -12.01223 41.74698 36987 ft 428 kts 20°
2026-04-26 06:47 -11.95698 41.77004 36985 ft 428 kts 20°
2026-04-26 06:48 -11.90204 41.79295 36986 ft 427 kts 20°
2026-04-26 06:48 -11.87588 41.80727 36999 ft 430 kts 35°
2026-04-26 06:48 -11.85443 41.82863 37015 ft 434 kts 51°
2026-04-26 06:48 -11.83953 41.85519 37013 ft 427 kts 66°
2026-04-26 06:49 -11.83200 41.88428 36478 ft 431 kts 80°
2026-04-26 06:49 -11.82770 41.91418 35857 ft 429 kts 78°
2026-04-26 06:49 -11.82284 41.94429 35210 ft 426 kts 77°
2026-04-26 06:49 -11.81776 41.97377 34587 ft 424 kts 77°
2026-04-26 06:50 -11.81246 42.00336 33964 ft 421 kts 77°
2026-04-26 06:50 -11.80712 42.03243 33365 ft 419 kts 76°
2026-04-26 06:50 -11.80157 42.06194 32759 ft 419 kts 76°
2026-04-26 06:50 -11.79607 42.09089 32232 ft 423 kts 76°
2026-04-26 06:51 -11.79040 42.12037 31702 ft 429 kts 76°
2026-04-26 06:51 -11.77879 42.18058 30632 ft 440 kts 76°
2026-04-26 06:51 -11.77280 42.21152 30078 ft 443 kts 77°
2026-04-26 06:52 -11.76686 42.24220 29532 ft 444 kts 77°
2026-04-26 06:52 -11.76093 42.27279 28973 ft 444 kts 77°
2026-04-26 06:52 -11.75491 42.30387 28421 ft 444 kts 77°
2026-04-26 06:52 -11.74898 42.33447 27865 ft 442 kts 77°
2026-04-26 06:53 -11.74309 42.36491 27322 ft 437 kts 78°
2026-04-26 06:53 -11.73721 42.39527 26760 ft 431 kts 78°
2026-04-26 06:53 -11.73147 42.42493 26217 ft 425 kts 78°
2026-04-26 06:53 -11.72577 42.45416 25728 ft 417 kts 77°
2026-04-26 06:54 -11.71895 42.48249 25238 ft 409 kts 74°
2026-04-26 06:54 -11.71178 42.51014 24700 ft 404 kts 75°
2026-04-26 06:54 -11.70462 42.53772 24163 ft 398 kts 75°
2026-04-26 06:54 -11.69762 42.56481 23636 ft 392 kts 75°
2026-04-26 06:55 -11.69081 42.59119 23128 ft 387 kts 75°
2026-04-26 06:55 -11.68401 42.61755 22620 ft 381 kts 75°
2026-04-26 06:55 -11.67730 42.64357 22125 ft 376 kts 76°
2026-04-26 06:55 -11.67079 42.66884 21655 ft 371 kts 75°
2026-04-26 06:56 -11.66422 42.69437 21182 ft 369 kts 76°
2026-04-26 06:56 -11.65781 42.71931 20722 ft 367 kts 76°
2026-04-26 06:56 -11.65130 42.74461 20252 ft 367 kts 76°
2026-04-26 06:56 -11.64492 42.76944 19792 ft 367 kts 76°
2026-04-26 06:57 -11.63841 42.79476 19321 ft 366 kts 76°
2026-04-26 06:57 -11.63204 42.81952 18857 ft 364 kts 76°
2026-04-26 06:57 -11.62561 42.84457 18383 ft 362 kts 76°
2026-04-26 06:57 -11.61935 42.86896 17920 ft 360 kts 76°
2026-04-26 06:58 -11.61307 42.89347 17455 ft 357 kts 76°
2026-04-26 06:58 -11.60681 42.91786 16995 ft 354 kts 76°
2026-04-26 06:58 -11.60059 42.94214 16540 ft 352 kts 76°
2026-04-26 06:58 -11.59444 42.96615 16083 ft 349 kts 76°
2026-04-26 06:59 -11.58830 42.99006 15627 ft 347 kts 76°
2026-04-26 06:59 -11.58224 43.01370 15168 ft 345 kts 76°
2026-04-26 06:59 -11.57620 43.03731 14706 ft 344 kts 76°
2026-04-26 06:59 -11.57019 43.06075 14245 ft 344 kts 76°
2026-04-26 07:00 -11.56418 43.08422 13768 ft 343 kts 76°
2026-04-26 07:00 -11.55820 43.10755 13301 ft 343 kts 76°
2026-04-26 07:00 -11.55223 43.13090 12825 ft 341 kts 76°
2026-04-26 07:00 -11.54623 43.15434 12341 ft 337 kts 76°
2026-04-26 07:01 -11.54043 43.17706 11866 ft 333 kts 76°
2026-04-26 07:01 -11.53461 43.19984 11398 ft 329 kts 76°
2026-04-26 07:01 -11.52894 43.22202 10930 ft 325 kts 76°
2026-04-26 07:01 -11.52326 43.24429 10456 ft 321 kts 76°
2026-04-26 07:02 -11.51765 43.26626 9971 ft 319 kts 76°
2026-04-26 07:02 -11.51216 43.28750 9743 ft 307 kts 75°
2026-04-26 07:02 -11.50661 43.30830 9731 ft 302 kts 75°
2026-04-26 07:02 -11.50108 43.32915 9743 ft 311 kts 76°
2026-04-26 07:03 -11.49536 43.35075 9740 ft 317 kts 76°
2026-04-26 07:03 -11.48955 43.37260 9750 ft 319 kts 76°
2026-04-26 07:03 -11.48375 43.39449 9745 ft 319 kts 76°
2026-04-26 07:03 -11.47803 43.41616 9742 ft 318 kts 76°
2026-04-26 07:04 -11.47230 43.43774 9746 ft 317 kts 76°
2026-04-26 07:04 -11.46655 43.45943 9735 ft 317 kts 76°
2026-04-26 07:04 -11.46075 43.48116 9744 ft 317 kts 76°
2026-04-26 07:04 -11.45496 43.50286 9748 ft 318 kts 76°
2026-04-26 07:05 -11.44913 43.52464 9742 ft 318 kts 76°
2026-04-26 07:05 -11.44329 43.54658 9737 ft 318 kts 76°
2026-04-26 07:05 -11.43758 43.56811 9734 ft 318 kts 76°
2026-04-26 07:05 -11.43180 43.59007 9737 ft 317 kts 76°
2026-04-26 07:06 -11.42608 43.61166 9737 ft 317 kts 76°
2026-04-26 07:06 -11.42032 43.63334 9732 ft 318 kts 76°
2026-04-26 07:06 -11.41391 43.65466 9717 ft 318 kts 66°
2026-04-26 07:06 -11.40021 43.67242 9716 ft 320 kts 37°
2026-04-26 07:07 -11.37988 43.68116 9733 ft 323 kts
2026-04-26 07:07 -11.35758 43.67906 9733 ft 324 kts 340°
2026-04-26 07:07 -11.33890 43.66643 9733 ft 325 kts 311°
2026-04-26 07:07 -11.32836 43.64625 9733 ft 325 kts 283°
2026-04-26 07:08 -11.32847 43.62384 9735 ft 323 kts 255°
2026-04-26 07:08 -11.33497 43.60178 9747 ft 324 kts 253°
2026-04-26 07:08 -11.34197 43.57985 9723 ft 324 kts 245°
2026-04-26 07:08 -11.35492 43.56157 9729 ft 321 kts 221°
2026-04-26 07:09 -11.37301 43.54836 9744 ft 320 kts 214°
2026-04-26 07:09 -11.39119 43.53512 9723 ft 321 kts 215°
2026-04-26 07:09 -11.40922 43.52166 9735 ft 320 kts 216°
2026-04-26 07:09 -11.42703 43.50810 9730 ft 321 kts 217°
2026-04-26 07:10 -11.48035 43.46636 9728 ft 320 kts 217°
2026-04-26 07:11 -11.51534 43.43847 9368 ft 314 kts 217°
2026-04-26 07:11 -11.53223 43.42498 9015 ft 308 kts 217°
2026-04-26 07:11 -11.54907 43.41151 8680 ft 302 kts 218°
2026-04-26 07:11 -11.56539 43.39842 8341 ft 297 kts 217°
2026-04-26 07:12 -11.58151 43.38549 7996 ft 292 kts 217°
2026-04-26 07:12 -11.59743 43.37268 7670 ft 287 kts 217°
2026-04-26 07:12 -11.61292 43.36020 7409 ft 281 kts 217°
2026-04-26 07:12 -11.62806 43.34798 7482 ft 271 kts 217°
2026-04-26 07:13 -11.64299 43.33586 7490 ft 278 kts 218°
2026-04-26 07:13 -11.65841 43.32332 7495 ft 284 kts 218°
2026-04-26 07:13 -11.67379 43.31078 7501 ft 287 kts 218°
2026-04-26 07:13 -11.68948 43.29797 7497 ft 286 kts 218°
2026-04-26 07:14 -11.70479 43.28548 7302 ft 277 kts 218°
2026-04-26 07:14 -11.71972 43.27329 6719 ft 274 kts 218°
2026-04-26 07:14 -11.73453 43.26120 6137 ft 270 kts 218°
2026-04-26 07:14 -11.74900 43.24938 5563 ft 266 kts 218°
2026-04-26 07:15 -11.76338 43.23762 4981 ft 263 kts 217°
2026-04-26 07:15 -11.77757 43.22601 4405 ft 261 kts 220°
2026-04-26 07:15 -11.78784 43.21105 3843 ft 262 kts 250°
2026-04-26 07:15 -11.78960 43.19281 3299 ft 262 kts 279°
2026-04-26 07:16 -11.78255 43.17603 2751 ft 261 kts 309°
2026-04-26 07:16 -11.76849 43.16507 2339 ft 258 kts 339°
2026-04-26 07:16 -11.75094 43.16273 2166 ft 248 kts 12°
2026-04-26 07:16 -11.73603 43.16949 2253 ft 226 kts 44°
2026-04-26 07:17 -11.72764 43.18182 2403 ft 201 kts 66°
2026-04-26 07:17 -11.72139 43.19388 2547 ft 188 kts 66°
2026-04-26 07:17 -11.71539 43.20584 2715 ft 191 kts 67°
2026-04-26 07:17 -11.70930 43.21818 2910 ft 197 kts 66°
2026-04-26 07:18 -11.70297 43.23116 2865 ft 205 kts 65°
2026-04-26 07:18 -11.69408 43.24244 2835 ft 208 kts 41°
2026-04-26 07:18 -11.68046 43.24798 2593 ft 217 kts
2026-04-26 07:18 -11.66526 43.24937 2328 ft 221 kts
2026-04-26 07:19 -11.64979 43.25108 2044 ft 225 kts 11°
2026-04-26 07:19 -11.63431 43.25406 1753 ft 222 kts 11°
2026-04-26 07:19 -11.61948 43.25663 1462 ft 211 kts 12°
2026-04-26 07:19 -11.60545 43.25912 1260 ft 194 kts 11°
2026-04-26 07:20 -11.59273 43.26140 1009 ft 177 kts 11°
2026-04-26 07:20 -11.58106 43.26345 777 ft 161 kts 10°
2026-04-26 07:20 -11.57066 43.26530 552 ft 142 kts
2026-04-26 07:20 -11.56142 43.26695 342 ft 127 kts
2026-04-26 07:21 -11.55473 43.26814 242 ft 126 kts
2026-04-26 07:21 -11.54604 43.26969 105 ft 121 kts
2026-04-26 07:21 -11.53859 43.27098 77 ft 68 kts
2026-04-26 07:21 -11.53688 43.27133 85 ft 10 kts 18°
2026-04-26 07:22 -11.53659 43.27171 88 ft 4 kts 87°
2026-04-26 07:22 -11.53666 43.27218 89 ft 10 kts 98°
2026-04-26 07:22 -11.53678 43.27297 93 ft 11 kts 98°
2026-04-26 07:22 -11.53684 43.27367 96 ft 8 kts 93°
2026-04-26 07:23 -11.53694 43.27402 98 ft 3 kts 144°
2026-04-26 07:23 -11.53714 43.27400 98 ft 0 kts 242°
2026-04-26 07:23 -11.53715 43.27399 97 ft 0 kts 242°
2026-04-26 07:38 -11.53719 43.27383 96 ft 5 kts 275°
2026-04-26 07:38 -11.53698 43.27347 96 ft 5 kts 310°
2026-04-26 07:38 -11.53678 43.27309 94 ft 7 kts 283°
2026-04-26 07:38 -11.53669 43.27251 91 ft 9 kts 279°
2026-04-26 07:39 -11.53657 43.27179 88 ft 10 kts 280°
2026-04-26 07:39 -11.53624 43.27135 88 ft 5 kts 13°
2026-04-26 07:39 -11.53617 43.27136 88 ft 0 kts 12°
2026-04-26 07:40 -11.53543 43.27153 91 ft 33 kts 12°
2026-04-26 07:40 -11.53116 43.27229 101 ft 96 kts
2026-04-26 07:40 -11.52275 43.27375 113 ft 140 kts 15°
2026-04-26 07:41 -11.51341 43.27527 508 ft 136 kts
2026-04-26 07:41 -11.50377 43.27729 826 ft 142 kts 14°
2026-04-26 07:41 -11.49401 43.27949 1154 ft 148 kts 13°
2026-04-26 07:41 -11.48345 43.28153 1471 ft 156 kts 13°
2026-04-26 07:42 -11.47252 43.28348 1783 ft 164 kts 12°
2026-04-26 07:42 -11.46200 43.28790 2072 ft 167 kts 50°
2026-04-26 07:42 -11.45767 43.29848 2404 ft 165 kts 94°
2026-04-26 07:42 -11.46177 43.30911 2742 ft 166 kts 127°
2026-04-26 07:43 -11.46862 43.31877 3083 ft 172 kts 126°
2026-04-26 07:43 -11.47607 43.32929 3293 ft 191 kts 126°
2026-04-26 07:43 -11.48400 43.34055 3618 ft 206 kts 126°
2026-04-26 07:43 -11.49271 43.35292 3946 ft 221 kts 126°
2026-04-26 07:44 -11.50187 43.36601 4310 ft 235 kts 126°
2026-04-26 07:44 -11.51170 43.38005 4668 ft 249 kts 126°
2026-04-26 07:44 -11.52223 43.39511 5300 ft 272 kts 126°
2026-04-26 07:44 -11.53297 43.41049 6479 ft 271 kts 125°
2026-04-26 07:45 -11.54409 43.42645 7434 ft 278 kts 125°
2026-04-26 07:45 -11.55531 43.44255 8399 ft 284 kts 125°
2026-04-26 07:45 -11.56673 43.45895 9382 ft 288 kts 125°
2026-04-26 07:45 -11.57844 43.47579 10246 ft 296 kts 126°
2026-04-26 07:46 -11.59100 43.49384 10355 ft 332 kts 126°
2026-04-26 07:46 -11.60478 43.51364 10982 ft 346 kts 126°
2026-04-26 07:46 -11.61858 43.53349 11964 ft 349 kts 126°
2026-04-26 07:46 -11.63259 43.55364 12786 ft 355 kts 126°
2026-04-26 07:47 -11.64699 43.57433 13620 ft 360 kts 126°
2026-04-26 07:47 -11.66156 43.59526 14494 ft 363 kts 126°
2026-04-26 07:47 -11.67620 43.61629 15309 ft 367 kts 126°
2026-04-26 07:47 -11.69101 43.63757 16079 ft 370 kts 125°
2026-04-26 07:48 -11.70588 43.65894 16768 ft 376 kts 125°
2026-04-26 07:48 -11.72097 43.68063 17496 ft 379 kts 125°
2026-04-26 07:48 -11.73642 43.70283 18171 ft 383 kts 124°
2026-04-26 07:48 -11.75180 43.72493 18847 ft 381 kts 124°
2026-04-26 07:49 -11.76672 43.74637 18955 ft 366 kts 124°
2026-04-26 07:49 -11.78154 43.76769 18968 ft 373 kts 124°
2026-04-26 07:49 -11.79680 43.78964 18976 ft 384 kts 124°
2026-04-26 07:50 -11.82811 43.83462 18971 ft 388 kts 124°
2026-04-26 07:50 -11.84363 43.85692 18966 ft 387 kts 124°
2026-04-26 07:50 -11.85932 43.87945 18967 ft 386 kts 124°
2026-04-26 07:50 -11.87480 43.90169 18965 ft 386 kts 124°
2026-04-26 07:51 -11.89020 43.92380 18967 ft 386 kts 124°
2026-04-26 07:51 -11.90579 43.94616 18965 ft 386 kts 124°
2026-04-26 07:51 -11.92142 43.96860 18967 ft 387 kts 124°
2026-04-26 07:51 -11.93700 43.99097 18966 ft 387 kts 124°
2026-04-26 07:52 -11.95268 44.01356 18965 ft 387 kts 124°
2026-04-26 07:52 -11.96807 44.03578 18964 ft 387 kts 124°
2026-04-26 07:52 -11.98360 44.05827 18962 ft 387 kts 124°
2026-04-26 07:52 -11.99914 44.08075 18962 ft 387 kts 124°
2026-04-26 07:53 -12.01470 44.10326 18964 ft 387 kts 124°
2026-04-26 07:53 -12.03021 44.12573 18966 ft 387 kts 124°
2026-04-26 07:53 -12.04566 44.14811 18961 ft 387 kts 124°
2026-04-26 07:53 -12.06122 44.17064 18963 ft 386 kts 124°
2026-04-26 07:54 -12.07662 44.19295 18964 ft 386 kts 124°
2026-04-26 07:54 -12.09222 44.21554 18959 ft 386 kts 124°
2026-04-26 07:54 -12.10753 44.23770 18962 ft 386 kts 124°
2026-04-26 07:54 -12.12310 44.26026 18960 ft 386 kts 124°
2026-04-26 07:55 -12.13860 44.28272 18961 ft 386 kts 124°
2026-04-26 07:55 -12.15397 44.30497 18963 ft 386 kts 124°
2026-04-26 07:55 -12.16957 44.32756 18967 ft 386 kts 124°
2026-04-26 07:55 -12.18506 44.35000 18969 ft 386 kts 124°
2026-04-26 07:56 -12.20040 44.37219 18971 ft 386 kts 124°
2026-04-26 07:56 -12.21602 44.39482 18977 ft 386 kts 124°
2026-04-26 07:56 -12.23134 44.41700 18984 ft 386 kts 124°
2026-04-26 07:56 -12.24687 44.43950 18985 ft 387 kts 124°
2026-04-26 07:57 -12.26236 44.46188 18945 ft 386 kts 124°
2026-04-26 07:57 -12.27771 44.48411 18455 ft 381 kts 124°
2026-04-26 07:57 -12.29287 44.50604 17976 ft 373 kts 124°
2026-04-26 07:57 -12.30770 44.52750 17486 ft 365 kts 125°
2026-04-26 07:58 -12.32210 44.54834 17020 ft 358 kts 125°
2026-04-26 07:58 -12.33647 44.56911 16563 ft 351 kts 125°
2026-04-26 07:58 -12.35045 44.58931 16115 ft 346 kts 125°
2026-04-26 07:58 -12.36424 44.60926 15671 ft 343 kts 125°
2026-04-26 07:59 -12.37799 44.62915 15229 ft 343 kts 126°
2026-04-26 07:59 -12.39170 44.64898 14789 ft 343 kts 126°
2026-04-26 07:59 -12.40540 44.66880 14346 ft 343 kts 126°
2026-04-26 07:59 -12.41920 44.68873 13898 ft 342 kts 126°
2026-04-26 08:00 -12.43277 44.70841 13451 ft 340 kts 126°
2026-04-26 08:00 -12.44627 44.72803 13000 ft 337 kts 126°
2026-04-26 08:00 -12.45979 44.74768 12546 ft 332 kts 126°
2026-04-26 08:00 -12.47285 44.76666 12102 ft 326 kts 126°
2026-04-26 08:01 -12.48572 44.78538 11668 ft 321 kts 126°
2026-04-26 08:01 -12.49857 44.80409 11235 ft 316 kts 126°
2026-04-26 08:01 -12.51103 44.82222 10810 ft 311 kts 126°
2026-04-26 08:01 -12.52332 44.84010 10387 ft 307 kts 126°
2026-04-26 08:02 -12.53559 44.85796 9965 ft 303 kts 125°
2026-04-26 08:02 -12.54760 44.87544 9551 ft 299 kts 125°
2026-04-26 08:02 -12.55944 44.89267 9141 ft 295 kts 125°
2026-04-26 08:02 -12.57118 44.90975 8734 ft 292 kts 125°
2026-04-26 08:03 -12.58271 44.92652 8330 ft 288 kts 125°
2026-04-26 08:03 -12.59419 44.94323 7925 ft 285 kts 125°
2026-04-26 08:03 -12.60558 44.95980 7524 ft 282 kts 125°
2026-04-26 08:03 -12.61671 44.97600 7129 ft 280 kts 124°
2026-04-26 08:04 -12.62794 44.99234 6725 ft 277 kts 124°
2026-04-26 08:04 -12.63890 45.00829 6330 ft 274 kts 124°
2026-04-26 08:04 -12.64977 45.02410 5934 ft 272 kts 124°
2026-04-26 08:04 -12.66063 45.03992 5532 ft 270 kts 125°
2026-04-26 08:05 -12.67139 45.05559 5127 ft 268 kts 125°
2026-04-26 08:05 -12.68206 45.07111 4713 ft 267 kts 125°
2026-04-26 08:05 -12.69251 45.08673 4402 ft 261 kts 122°
2026-04-26 08:05 -12.70200 45.10231 4103 ft 256 kts 122°
2026-04-26 08:06 -12.71135 45.11763 3805 ft 252 kts 122°
2026-04-26 08:06 -12.72067 45.13288 3503 ft 249 kts 123°
2026-04-26 08:06 -12.72987 45.14791 3211 ft 248 kts 123°
2026-04-26 08:06 -12.73894 45.16272 2927 ft 248 kts 123°
2026-04-26 08:07 -12.74825 45.17790 2629 ft 249 kts 123°
2026-04-26 08:07 -12.75743 45.19288 2339 ft 249 kts 123°
2026-04-26 08:07 -12.76663 45.20788 2056 ft 248 kts 123°
2026-04-26 08:07 -12.77561 45.22252 1947 ft 241 kts 123°
2026-04-26 08:08 -12.78461 45.23719 1942 ft 241 kts 123°
2026-04-26 08:08 -12.79360 45.25185 1950 ft 247 kts 123°
2026-04-26 08:08 -12.80281 45.26687 1951 ft 249 kts 123°
2026-04-26 08:08 -12.81217 45.28197 1947 ft 250 kts 126°
2026-04-26 08:09 -12.82503 45.29353 1955 ft 247 kts 148°
2026-04-26 08:09 -12.83997 45.30232 1944 ft 247 kts 163°
2026-04-26 08:09 -12.85711 45.30274 1982 ft 247 kts 194°
2026-04-26 08:09 -12.87204 45.29425 1996 ft 250 kts 224°
2026-04-26 08:10 -12.88095 45.27903 1999 ft 255 kts 253°
2026-04-26 08:10 -12.88132 45.26093 1998 ft 258 kts 283°
2026-04-26 08:10 -12.87291 45.24485 1998 ft 261 kts 313°
2026-04-26 08:10 -12.85782 45.23487 1993 ft 260 kts 343°
2026-04-26 08:11 -12.83980 45.23277 2003 ft 260 kts 359°
2026-04-26 08:11 -12.82155 45.23226 1987 ft 261 kts
2026-04-26 08:11 -12.80332 45.23206 1982 ft 257 kts
2026-04-26 08:11 -12.78600 45.23204 1975 ft 244 kts
2026-04-26 08:12 -12.76924 45.23225 1972 ft 230 kts
2026-04-26 08:12 -12.75368 45.23227 1974 ft 218 kts
2026-04-26 08:12 -12.73892 45.23217 1955 ft 207 kts 355°
2026-04-26 08:12 -12.72666 45.22596 1952 ft 193 kts 310°
2026-04-26 08:13 -12.71741 45.21608 1972 ft 191 kts 320°
2026-04-26 08:13 -12.70507 45.21096 2017 ft 195 kts 349°
2026-04-26 08:13 -12.69139 45.21101 1990 ft 198 kts 25°
2026-04-26 08:13 -12.68184 45.22001 2066 ft 189 kts 66°
2026-04-26 08:14 -12.68085 45.23304 1977 ft 186 kts 110°
2026-04-26 08:14 -12.68909 45.24259 1978 ft 181 kts 155°
2026-04-26 08:14 -12.70151 45.24530 2005 ft 182 kts 170°
2026-04-26 08:14 -12.71387 45.24541 1983 ft 171 kts 189°
2026-04-26 08:15 -12.72532 45.24330 1827 ft 162 kts 189°
2026-04-26 08:15 -12.73611 45.24540 1712 ft 156 kts 161°
2026-04-26 08:15 -12.74650 45.24908 1603 ft 160 kts 160°
2026-04-26 08:15 -12.75652 45.25266 1381 ft 149 kts 160°
2026-04-26 08:16 -12.76342 45.25579 1197 ft 138 kts 155°
2026-04-26 08:16 -12.77171 45.26046 881 ft 136 kts 152°
2026-04-26 08:16 -12.78019 45.26476 516 ft 135 kts 149°
2026-04-26 08:16 -12.78796 45.26965 411 ft 132 kts 152°
2026-04-26 08:17 -12.79599 45.27426 245 ft 131 kts 152°
2026-04-26 08:17 -12.80383 45.27884 47 ft 126 kts 153°
2026-04-26 08:17 -12.81006 45.28252 26 ft 96 kts 147°
2026-04-26 08:17 -12.81424 45.28513 26 ft 52 kts 149°
2026-04-26 08:18 -12.81577 45.28596 26 ft 7 kts 167°
2026-04-26 08:18 -12.81598 45.28599 26 ft 3 kts 172°
2026-04-26 08:18 -12.81655 45.28604 26 ft 4 kts 147°
2026-04-26 08:18 -12.81650 45.28627 26 ft 3 kts 27°
2026-04-26 08:19 -12.81620 45.28618 26 ft 8 kts 331°
2026-04-26 08:19 -12.81497 45.28548 26 ft 31 kts 330°
2026-04-26 08:19 -12.81239 45.28394 26 ft 53 kts 329°
2026-04-26 08:19 -12.80949 45.28229 26 ft 61 kts 330°
2026-04-26 08:20 -12.80660 45.28028 26 ft 54 kts 335°
2026-04-26 08:20 -12.80461 45.27974 26 ft 22 kts 30°
2026-04-26 08:21 -12.80411 45.28038 26 ft 11 kts 58°
2026-04-26 08:21 -12.80359 45.28112 26 ft 14 kts 40°
2026-04-26 08:21 -12.80295 45.28123 26 ft 7 kts 337°
2026-04-26 08:21 -12.80269 45.28109 26 ft 0 kts 330°